[[{"header":{"parameterUnit":"m.s-1","parameterCategory":1,"la1":30.2991,"la2":30.254,"lo1":-89.0895,"lo2":-89.0444,"dy":0.0017,"dx":0.0017,"nx":28,"ny":28,"refTime":"2023-11-21T03:00:00:Z","depth":0,"parameterNumber":2,"parameterNumberName":"U-component_of_WINDS"},"data":[0,0,0,0,0,0,0,0,0,0,0,0,0,0,0,0,0,0,0,0,0,0,0,0,0,0,0,0,0,0,0,0,0,0,0,0,0,0,0,0,0,0,0,0,0,0,0,0,0,0,0,0,0,0,0,0,0,0,1.3033,1.3034,0,1.3074,1.3074,1.3075,1.3064,1.3063,1.3063,1.3062,1.3104,1.3105,1.3107,0,0,0,0,0,0,0,0,0,0,0,0,0,1.2949,1.295,1.3033,1.3034,1.3034,1.3074,1.3074,1.3075,1.3064,1.3063,1.3062,1.3062,1.3103,1.3105,1.3107,0,0,0,0,0,0,0,0,0,0,0,0,0,1.2987,1.2951,1.3033,1.3034,1.3034,1.3074,1.3074,1.3075,1.3065,1.3063,1.3062,1.3061,1.3102,1.3105,1.3108,1.3149,0,0,1.3116,1.3117,0,0,0,0,0,0,0,0,1.2985,1.299,1.3033,1.3034,1.3034,1.3063,1.306,1.31,1.3065,1.3053,1.3062,1.306,1.3091,1.3095,1.3105,1.3151,1.3153,1.3116,1.3118,1.3119,1.312,0,0,0,0,0,0,0,1.2982,1.2988,1.3049,1.3034,1.3035,1.3033,1.3037,1.3067,1.3078,1.3054,1.3053,1.3058,1.3091,1.3102,1.3106,1.3153,1.3116,1.3119,1.3121,1.3122,1.3238,1.324,0,0,0,0,0,0,1.2979,1.2986,1.3048,1.3051,1.3006,1.3035,1.304,1.3055,1.3078,1.308,1.3059,1.3058,1.3098,1.3103,1.3107,1.316,1.3119,1.3122,1.3124,1.3237,1.3239,1.324,0,0,0,0,0,0,1.2977,1.2984,1.3046,1.3018,1.3026,1.3038,1.3055,1.3056,1.3067,1.3082,1.3084,1.3069,1.3097,1.3103,1.3139,1.3161,1.3123,1.3126,1.3235,1.3238,1.3239,1.3263,0,0,0,0,0,0,1.2975,1.2984,1.2999,1.3019,1.3027,1.3078,1.3056,1.3058,1.3072,1.3071,1.3091,1.3093,1.3097,1.3135,1.3142,1.3164,1.3128,1.3233,1.3236,1.3239,1.326,1.3266,1.327,0,0,0,0,0,1.2972,1.3004,1.3,1.3008,1.3047,1.3079,1.3084,1.3087,1.3074,1.309,1.31,1.3093,1.3157,1.3139,1.3147,1.317,1.3232,1.3235,1.3239,1.3258,1.3265,1.327,0,0,0,0,0,0,1.2986,1.3006,1.3002,1.3041,1.3059,1.3077,1.3097,1.3093,1.3114,1.3112,1.3115,1.312,1.3157,1.3167,1.3146,1.3212,1.3193,1.3198,1.3205,1.3211,1.3216,1.3214,1.313,0,0,0,0,0,1.2994,1.3017,1.3034,1.3067,1.3076,1.3085,1.3099,1.31,1.3118,1.3125,1.3137,1.3155,1.318,1.3195,1.3218,1.3261,1.3267,1.3281,1.3286,1.329,1.3294,1.332,1.3328,1.3251,1.3251,1.3251,0,0,1.301,1.3024,1.3038,1.307,1.3083,1.3109,1.3091,1.3118,1.3138,1.3129,1.3165,1.3174,1.3195,1.3235,1.3253,1.3244,1.3317,1.3294,1.3297,1.3299,1.3324,1.3332,1.3338,1.3253,1.3253,1.3252,0,0,1.3053,1.3065,1.3095,1.3109,1.313,1.3136,1.3143,1.3163,1.3169,1.3205,1.32,1.3223,1.3264,1.328,1.3293,1.3344,1.334,1.3351,1.3378,1.3403,1.3409,1.3414,1.3435,1.3442,1.3356,1.3356,1.3356,0,1.3071,1.3109,1.3111,1.314,1.3155,1.3148,1.318,1.3193,1.322,1.3231,1.322,1.3274,1.3287,1.3332,1.3345,1.3355,1.3365,1.335,1.3408,1.3413,1.3418,1.3438,1.3446,1.3357,1.3357,1.3357,1.3357,0,1.3131,1.3157,1.3179,1.3207,1.3224,1.3253,1.3261,1.3279,1.3278,1.3286,1.3324,1.334,1.3367,1.3377,1.3377,1.3423,1.3417,1.3407,1.3388,1.3427,1.3446,1.3454,1.3359,1.3359,1.3358,1.3358,0,0,1.3184,1.3213,1.3222,1.3235,1.3258,1.3279,1.331,1.3337,1.3353,1.3372,1.3399,1.3435,1.3426,1.3441,1.3442,1.3464,1.3507,1.3452,1.3452,1.3464,1.3562,1.3572,1.358,1.3504,1.3505,1.3506,1.3562,0,1.3231,1.3284,1.3288,1.3337,1.3363,1.3358,1.3385,1.3402,1.3411,1.3435,1.3444,1.347,1.3456,1.3465,1.3487,1.3498,1.3527,1.3493,1.353,1.3532,1.3528,1.359,1.3599,1.3651,1.3569,1.357,1.3571,0,1.3293,1.3315,1.3367,1.3389,1.34,1.3424,1.345,1.3472,1.3493,1.3498,1.3516,1.3515,1.3547,1.3526,1.3572,1.3548,1.3564,1.3571,1.3574,1.3579,1.3555,1.3599,1.3667,1.3675,1.3582,1.3581,1.358,0,1.333,1.3373,1.341,1.3421,1.3447,1.3464,1.3476,1.3495,1.3512,1.3535,1.3547,1.3573,1.3588,1.3609,1.3615,1.3598,1.3662,1.364,1.3668,1.3668,1.3683,1.3683,1.3757,1.3689,1.3689,1.3689,1.3689,0,1.3383,1.3416,1.3427,1.345,1.3487,1.3491,1.3528,1.3538,1.3556,1.3582,1.3578,1.3603,1.3609,1.3635,1.364,1.3679,1.3685,1.3691,1.3692,1.3693,1.3692,1.3704,1.3702,1.3691,1.3691,1.369,1.369,0,1.3431,1.344,1.3481,1.3502,1.3508,1.3535,1.3554,1.3577,1.3585,1.3618,1.3626,1.3639,1.367,1.3678,1.3714,1.3718,1.3764,1.3761,1.3758,1.3758,1.3787,1.3785,1.3873,1.3886,1.3808,1.3809,1.3809,0,1.3466,1.3491,1.3516,1.3533,1.3546,1.3573,1.3591,1.3596,1.3615,1.3642,1.3662,1.3692,1.3717,1.3767,1.378,1.3808,1.3807,1.3836,1.3811,1.3812,1.3811,1.381,1.3814,1.3841,1.3842,1.3843,1.3843,0,1.3527,1.3531,1.3556,1.3584,1.3606,1.3628,1.3649,1.3663,1.3672,1.3693,1.3725,1.3744,1.3782,1.3814,1.3843,1.3855,1.3852,1.3851,1.3859,1.3861,1.3859,1.3863,1.3773,1.3849,1.3849,1.3848,1.3848,1.3848,1.3571,1.3594,1.3616,1.3646,1.3662,1.3683,1.3706,1.3718,1.3744,1.3776,1.3778,1.3813,1.3835,1.3874,1.3888,1.3916,1.3908,1.3919,1.3923,1.3926,1.393,1.3853,1.3921,1.3921,1.3921,1.3921,1.3921,0,1.3635,1.3649,1.3676,1.3706,1.373,1.3724,1.3748,1.3768,1.3799,1.382,1.3845,1.3883,1.3913,1.3929,1.396,1.398,1.3979,1.3988,1.3988,1.3991,1.3934,1.3925,1.3988,1.3988,1.3988,1.3988,1.3988,1.3988,1.3671,1.3711,1.3717,1.3766,1.378,1.3814,1.3829,1.3848,1.3865,1.3908,1.3933,1.3944,1.3963,1.3996,1.4024,1.4028,1.4041,1.4051,1.4054,1.4001,1.3995,1.3988,1.398,1.4053,1.4053,1.4109,1.4109,1.411]},{"header":{"parameterUnit":"m.s-1","parameterCategory":1,"la1":30.2991,"la2":30.254,"lo1":-89.0895,"lo2":-89.0444,"dy":0.0017,"dx":0.0017,"nx":28,"ny":28,"refTime":"2023-11-21T03:00:00:Z","depth":0,"parameterNumber":3,"parameterNumberName":"V-component_of_WINDS"},"data":[0,0,0,0,0,0,0,0,0,0,0,0,0,0,0,0,0,0,0,0,0,0,0,0,0,0,0,0,0,0,0,0,0,0,0,0,0,0,0,0,0,0,0,0,0,0,0,0,0,0,0,0,0,0,0,0,0,0,4.1822,4.1825,0,4.208,4.2083,4.2086,4.2133,4.2131,4.2128,4.2126,4.2394,4.2403,4.2412,0,0,0,0,0,0,0,0,0,0,0,0,0,4.1373,4.1381,4.1822,4.1825,4.1828,4.2079,4.2083,4.2086,4.2133,4.213,4.2128,4.2126,4.2391,4.2402,4.2413,0,0,0,0,0,0,0,0,0,0,0,0,0,4.1593,4.1384,4.1821,4.1882,4.189,4.2079,4.2083,4.2087,4.2134,4.213,4.2127,4.2124,4.2388,4.2401,4.2414,4.2562,0,0,4.2456,4.2462,0,0,0,0,0,0,0,0,4.1581,4.161,4.187,4.1878,4.1887,4.2071,4.2023,4.2247,4.2134,4.2041,4.2126,4.2123,4.2289,4.2311,4.2366,4.2575,4.2586,4.2457,4.2466,4.2471,4.2475,0,0,0,0,0,0,0,4.1565,4.1599,4.1924,4.1873,4.1884,4.1897,4.1925,4.2065,4.218,4.2049,4.2053,4.2083,4.2294,4.2353,4.2373,4.259,4.2457,4.2469,4.2477,4.2483,4.2933,4.2937,0,0,0,0,0,0,4.1539,4.1586,4.1916,4.1932,4.1723,4.1908,4.1939,4.2015,4.2179,4.22,4.2085,4.2084,4.2331,4.2357,4.2383,4.2568,4.2471,4.2484,4.2492,4.2929,4.2934,4.2938,0,0,0,0,0,0,4.1529,4.1568,4.1905,4.176,4.1804,4.1919,4.2004,4.2022,4.2081,4.2206,4.2227,4.2125,4.233,4.2363,4.2517,4.2578,4.249,4.2503,4.2925,4.2931,4.2936,4.2938,0,0,0,0,0,0,4.1516,4.1564,4.1621,4.1761,4.1811,4.2035,4.2008,4.2029,4.2104,4.2105,4.2249,4.2269,4.233,4.2496,4.2531,4.2595,4.2513,4.292,4.2927,4.2934,4.2933,4.2943,4.2951,0,0,0,0,0,4.15,4.1612,4.1623,4.1663,4.1885,4.2038,4.2067,4.2134,4.2109,4.2168,4.2247,4.2265,4.2564,4.2512,4.2551,4.262,4.2917,4.2925,4.2934,4.2929,4.2941,4.2951,0,0,0,0,0,0,4.1478,4.1631,4.1646,4.1806,4.1909,4.2046,4.2122,4.2144,4.2257,4.2253,4.2331,4.2364,4.2513,4.2581,4.252,4.2771,4.2739,4.2756,4.2722,4.2735,4.2743,4.2725,4.2525,0,0,0,0,0,4.1491,4.1602,4.173,4.186,4.191,4.2007,4.2076,4.2118,4.2228,4.2272,4.2363,4.247,4.2588,4.2665,4.278,4.2942,4.2974,4.3008,4.3017,4.3024,4.3039,4.313,4.3147,4.2966,4.2966,4.2966,0,0,4.1521,4.1618,4.1684,4.1858,4.1942,4.2056,4.2043,4.2165,4.2251,4.2291,4.2442,4.2512,4.2636,4.2794,4.2869,4.2856,4.3096,4.3035,4.304,4.3051,4.3141,4.3158,4.3173,4.2972,4.2971,4.297,0,0,4.1634,4.1718,4.1836,4.192,4.2047,4.211,4.2138,4.2272,4.232,4.2471,4.2504,4.2607,4.2809,4.2897,4.2967,4.3111,4.3132,4.3146,4.3196,4.3284,4.3298,4.3311,4.3365,4.3382,4.316,4.316,4.316,0,4.1656,4.1829,4.1893,4.2014,4.209,4.2129,4.2249,4.2328,4.2486,4.2538,4.2521,4.2775,4.2861,4.3041,4.3076,4.3131,4.3166,4.3132,4.329,4.3304,4.3318,4.3369,4.3389,4.3161,4.3161,4.3161,4.316,0,4.185,4.1968,4.2048,4.2199,4.2284,4.2403,4.2487,4.2565,4.2598,4.2664,4.2818,4.2922,4.306,4.3105,4.314,4.329,4.3278,4.3274,4.3244,4.3335,4.3385,4.3405,4.3162,4.3162,4.3162,4.3161,0,0,4.196,4.2143,4.2172,4.2241,4.2383,4.2477,4.2597,4.273,4.2797,4.2903,4.3008,4.3177,4.3174,4.3254,4.3299,4.3375,4.3485,4.3363,4.3367,4.3384,4.3658,4.3662,4.3684,4.3497,4.3501,4.3504,4.3648,0,4.2092,4.2309,4.237,4.2553,4.2665,4.2702,4.2808,4.2906,4.297,4.3074,4.3144,4.3264,4.325,4.3299,4.3376,4.3455,4.3541,4.3445,4.3597,4.3602,4.3568,4.371,4.3715,4.3846,4.3668,4.3671,4.3674,0,4.2276,4.2386,4.258,4.2707,4.2756,4.285,4.2977,4.3075,4.3188,4.3228,4.3317,4.3354,4.3482,4.3441,4.362,4.3553,4.3618,4.3666,4.3673,4.3692,4.3646,4.3735,4.3889,4.3909,4.3705,4.3702,4.37,0,4.234,4.2536,4.2677,4.2735,4.2886,4.2951,4.3017,4.3127,4.3203,4.3313,4.3364,4.3488,4.3557,4.3652,4.3722,4.3685,4.3895,4.386,4.3934,4.3932,4.398,4.3976,4.4148,4.4016,4.4016,4.4016,4.4015,0,4.2483,4.2601,4.2708,4.2795,4.2929,4.2997,4.3127,4.3195,4.3292,4.3394,4.3433,4.3528,4.3613,4.3719,4.3774,4.3914,4.3944,4.3982,4.3996,4.3981,4.3976,4.4027,4.4021,4.4021,4.402,4.4019,4.4018,0,4.2579,4.2654,4.2812,4.2941,4.2976,4.3069,4.318,4.3267,4.333,4.3459,4.3493,4.3593,4.372,4.3798,4.3959,4.3996,4.4152,4.416,4.4114,4.4121,4.4191,4.4184,4.4405,4.4438,4.4281,4.4282,4.4283,0,4.2667,4.2758,4.2896,4.2967,4.3033,4.3146,4.3223,4.3294,4.3373,4.3507,4.3578,4.3707,4.3814,4.4016,4.4104,4.4227,4.4241,4.4309,4.426,4.4242,4.4245,4.424,4.425,4.4319,4.432,4.4321,4.4322,0,4.2815,4.2848,4.2957,4.308,4.317,4.327,4.337,4.3426,4.3513,4.36,4.373,4.3813,4.3976,4.4105,4.4236,4.4305,4.4329,4.4336,4.4361,4.4348,4.4317,4.4337,4.4139,4.4332,4.4331,4.433,4.433,4.4329,4.2912,4.2995,4.3105,4.3226,4.3307,4.3399,4.3487,4.3561,4.367,4.3808,4.3843,4.3979,4.4089,4.4267,4.4338,4.4446,4.4436,4.4471,4.448,4.4488,4.4491,4.4297,4.447,4.447,4.4469,4.4469,4.4469,0,4.3065,4.3137,4.3246,4.3384,4.3479,4.349,4.3601,4.368,4.3799,4.3899,4.4003,4.4152,4.4276,4.4372,4.45,4.4568,4.4582,4.4599,4.4597,4.4612,4.4491,4.4459,4.4586,4.4585,4.4585,4.4585,4.4585,4.4585,4.3156,4.3297,4.3343,4.3525,4.3597,4.373,4.3792,4.3878,4.3957,4.4122,4.4224,4.4285,4.4384,4.4519,4.4633,4.4658,4.4704,4.472,4.4747,4.4633,4.4621,4.4609,4.4579,4.4729,4.4729,4.486,4.4861,4.4862]}]]